timestamp,wind_dir_avg,wind_spd_avg,wind_spd_max_dir,wind_spd_gust,battery_voltage,lat,long
2021-01-07 00:04:01+00:00,62.0,4.68,59.0,5.63,12.57,47.59359,-54.27349
2021-01-07 00:14:01+00:00,76.0,4.35,69.0,5.27,12.57,47.59359,-54.27349
2021-01-07 00:24:01+00:00,74.0,4.11,59.0,5.11,12.57,47.59359,-54.27349
2021-01-07 00:34:01+00:00,83.0,3.77,96.0,5.89,12.57,47.59359,-54.27349
2021-01-07 00:44:01+00:00,80.0,3.65,73.0,4.49,12.57,47.59359,-54.27349
2021-01-07 00:54:01+00:00,73.0,4.97,73.0,5.93,12.57,47.59359,-54.27349
2021-01-07 01:04:01+00:00,75.0,3.82,73.0,5.03,12.57,47.59359,-54.27349
2021-01-07 01:14:01+00:00,54.0,4.75,64.0,6.67,12.57,47.59359,-54.27349
2021-01-07 01:24:01+00:00,44.0,3.93,47.0,4.44,12.57,47.59359,-54.27349
2021-01-07 01:34:01+00:00,49.0,6.46,48.0,7.45,12.57,47.59359,-54.27349
2021-01-07 01:44:01+00:00,38.0,7.26,38.0,7.87,12.57,47.59359,-54.27349
2021-01-07 01:54:01+00:00,50.0,5.23,48.0,6.19,12.57,47.59359,-54.27349
2021-01-07 02:04:01+00:00,43.0,6.82,53.0,8.28,12.57,47.59359,-54.27349
2021-01-07 02:14:01+00:00,39.0,5.48,45.0,6.34,12.49,47.59359,-54.27349
2021-01-07 02:24:01+00:00,43.0,7.69,40.0,8.47,12.49,47.59359,-54.27349
2021-01-07 02:34:01+00:00,40.0,7.37,42.0,8.66,12.49,47.59359,-54.27349
2021-01-07 02:44:01+00:00,58.0,8.47,54.0,9.5,12.49,47.59359,-54.27349
2021-01-07 02:54:01+00:00,65.0,7.97,62.0,9.05,12.49,47.59359,-54.27349
2021-01-07 03:04:01+00:00,52.0,6.94,53.0,7.62,12.49,47.59359,-54.27349
2021-01-07 03:14:01+00:00,31.0,6.71,37.0,7.58,12.49,47.59359,-54.27349
2021-01-07 03:24:01+00:00,17.0,6.19,16.0,6.92,12.49,47.59359,-54.27349
2021-01-07 03:34:01+00:00,36.0,4.64,53.0,5.41,12.49,47.59359,-54.27349
2021-01-07 03:44:01+00:00,29.0,5.04,38.0,5.76,12.49,47.59359,-54.27349
2021-01-07 03:54:01+00:00,38.0,6.01,41.0,6.6,12.49,47.59359,-54.27349
2021-01-07 04:04:01+00:00,50.0,6.43,47.0,6.88,12.49,47.59359,-54.27349
2021-01-07 04:14:01+00:00,57.0,6.17,57.0,6.93,12.49,47.59359,-54.27349
2021-01-07 04:24:01+00:00,72.0,6.92,72.0,8.45,12.49,47.59359,-54.27349
2021-01-07 04:34:01+00:00,67.0,7.86,69.0,8.76,12.49,47.59359,-54.27349
2021-01-07 04:44:01+00:00,64.0,8.35,62.0,9.3,12.49,47.59359,-54.27349
2021-01-07 04:54:01+00:00,59.0,8.21,66.0,9.95,12.49,47.59359,-54.27349
2021-01-07 05:04:01+00:00,57.0,7.7,55.0,8.8,12.49,47.59359,-54.27349
2021-01-07 05:14:01+00:00,64.0,7.38,56.0,8.5,12.49,47.59359,-54.27349
2021-01-07 05:24:01+00:00,53.0,8.15,51.0,9.17,12.49,47.59359,-54.27349
2021-01-07 05:34:01+00:00,49.0,8.56,48.0,9.7,12.49,47.59359,-54.27349
2021-01-07 05:44:01+00:00,53.0,7.55,53.0,8.7,12.49,47.59359,-54.27349
2021-01-07 05:54:01+00:00,49.0,7.74,53.0,9.04,12.49,47.59359,-54.27349
2021-01-07 06:04:01+00:00,45.0,7.55,49.0,8.35,12.49,47.59359,-54.27349
2021-01-07 06:14:01+00:00,43.0,7.53,43.0,8.13,12.41,47.59359,-54.27349
2021-01-07 06:24:01+00:00,43.0,7.93,50.0,9.21,12.41,47.59359,-54.27349
2021-01-07 06:34:01+00:00,54.0,8.7,55.0,9.39,12.41,47.59359,-54.27349
2021-01-07 06:44:01+00:00,56.0,8.48,53.0,9.5,12.41,47.59359,-54.27349
2021-01-07 06:54:01+00:00,57.0,8.4,57.0,9.62,12.41,47.59359,-54.27349
2021-01-07 07:04:01+00:00,56.0,7.15,49.0,8.1,12.41,47.59359,-54.27349
2021-01-07 07:14:01+00:00,42.0,7.76,45.0,8.65,12.41,47.59359,-54.27349
2021-01-07 07:24:01+00:00,23.0,5.82,32.0,6.68,12.41,47.59359,-54.27349
2021-01-07 07:34:01+00:00,28.0,7.01,31.0,7.41,12.41,47.59359,-54.27349
2021-01-07 07:44:01+00:00,21.0,7.16,28.0,8.14,12.41,47.59359,-54.27349
2021-01-07 07:54:01+00:00,32.0,8.45,35.0,9.63,12.41,47.59359,-54.27349
2021-01-07 08:04:01+00:00,39.0,8.52,37.0,9.75,12.41,47.59359,-54.27349
2021-01-07 08:14:01+00:00,41.0,7.5,40.0,8.23,12.41,47.59359,-54.27349
2021-01-07 08:24:01+00:00,39.0,7.57,52.0,9.35,12.41,47.59359,-54.27349
2021-01-07 08:34:01+00:00,48.0,6.44,47.0,7.35,12.41,47.59359,-54.27349
2021-01-07 08:44:01+00:00,31.0,7.16,33.0,7.84,12.41,47.59359,-54.27349
2021-01-07 08:54:01+00:00,28.0,7.51,30.0,8.22,12.41,47.59359,-54.27349
2021-01-07 09:04:01+00:00,30.0,5.78,35.0,6.4,12.41,47.59359,-54.27349
2021-01-07 09:14:01+00:00,44.0,7.12,47.0,8.22,12.41,47.59359,-54.27349
2021-01-07 09:24:01+00:00,43.0,7.09,47.0,7.85,12.41,47.59359,-54.27349
2021-01-07 09:34:01+00:00,71.0,5.77,69.0,6.93,12.41,47.59359,-54.27349
2021-01-07 09:44:01+00:00,56.0,5.93,58.0,6.45,12.41,47.59359,-54.27349
2021-01-07 09:54:01+00:00,61.0,6.07,59.0,7.34,12.41,47.59359,-54.27349
2021-01-07 10:04:01+00:00,54.0,6.45,53.0,7.38,12.41,47.59359,-54.27349
2021-01-07 10:14:01+00:00,54.0,7.71,57.0,8.57,12.41,47.59359,-54.27349
2021-01-07 10:24:01+00:00,46.0,7.08,47.0,7.84,12.41,47.59359,-54.27349
2021-01-07 10:34:01+00:00,45.0,7.25,47.0,8.21,12.41,47.59359,-54.27349
2021-01-07 10:44:01+00:00,44.0,7.87,42.0,8.4,12.41,47.59359,-54.27349
2021-01-07 10:54:01+00:00,43.0,6.93,46.0,7.8,12.41,47.59359,-54.27349
2021-01-07 11:04:01+00:00,33.0,6.8,36.0,7.41,12.41,47.59359,-54.27349
2021-01-07 12:14:01+00:00,46.0,9.22,45.0,10.69,12.33,47.59359,-54.27349
2021-01-07 12:24:01+00:00,45.0,8.95,50.0,9.85,12.33,47.59359,-54.27349
2021-01-07 12:34:01+00:00,38.0,9.13,42.0,10.52,12.33,47.59359,-54.27349
2021-01-07 12:44:01+00:00,37.0,8.51,45.0,9.3,12.33,47.59359,-54.27349
2021-01-07 12:54:01+00:00,47.0,9.41,46.0,10.51,12.33,47.59359,-54.27349
2021-01-07 13:04:01+00:00,41.0,9.6,39.0,10.68,12.33,47.59359,-54.27349
2021-01-07 13:14:01+00:00,35.0,9.04,43.0,10.2,12.41,47.59359,-54.27349
2021-01-07 13:24:01+00:00,35.0,9.17,32.0,10.57,12.41,47.59359,-54.27349
2021-01-07 13:34:01+00:00,42.0,10.74,42.0,12.19,12.41,47.59359,-54.27349
2021-01-07 13:44:01+00:00,43.0,10.81,43.0,11.99,12.41,47.59359,-54.27349
2021-01-07 13:54:01+00:00,43.0,10.32,40.0,12.34,12.41,47.59359,-54.27349
2021-01-07 14:04:01+00:00,42.0,10.18,46.0,11.73,12.41,47.59359,-54.27349
2021-01-07 14:14:01+00:00,44.0,10.69,45.0,11.77,12.41,47.59359,-54.27349
2021-01-07 14:24:01+00:00,40.0,10.71,39.0,11.91,12.41,47.59359,-54.27349
2021-01-07 14:34:01+00:00,41.0,11.21,40.0,12.05,12.41,47.59359,-54.27349
2021-01-07 14:44:01+00:00,44.0,10.38,41.0,11.83,12.41,47.59359,-54.27349
2021-01-07 14:54:01+00:00,44.0,10.6,44.0,11.7,12.41,47.59359,-54.27349
2021-01-07 15:04:01+00:00,33.0,10.1,36.0,11.63,12.41,47.59359,-54.27349
2021-01-07 15:14:01+00:00,34.0,9.96,37.0,11.06,12.41,47.59359,-54.27349
2021-01-07 15:24:01+00:00,40.0,8.67,39.0,10.16,12.41,47.59359,-54.27349
2021-01-07 15:34:01+00:00,33.0,9.54,35.0,10.58,12.41,47.59359,-54.27349
2021-01-07 15:44:01+00:00,35.0,8.5,40.0,9.18,12.41,47.59359,-54.27349
2021-01-07 15:54:01+00:00,31.0,9.9,33.0,10.72,12.41,47.59359,-54.27349
2021-01-07 16:04:01+00:00,36.0,9.11,34.0,9.88,12.41,47.59359,-54.27349
2021-01-07 16:14:01+00:00,43.0,9.28,43.0,10.52,12.49,47.59359,-54.27349
2021-01-07 16:24:01+00:00,40.0,8.17,39.0,8.89,12.49,47.59359,-54.27349
2021-01-07 16:34:01+00:00,52.0,9.13,52.0,10.42,12.49,47.59359,-54.27349
2021-01-07 16:44:01+00:00,54.0,9.19,54.0,10.67,12.49,47.59359,-54.27349
2021-01-07 16:54:01+00:00,63.0,8.64,64.0,10.76,12.49,47.59359,-54.27349
2021-01-07 17:04:01+00:00,60.0,8.71,61.0,9.91,12.49,47.59359,-54.27349
2021-01-07 17:14:01+00:00,64.0,8.35,64.0,10.32,13.05,47.59359,-54.27349
2021-01-07 17:24:01+00:00,61.0,9.89,61.0,11.52,13.05,47.59359,-54.27349
2021-01-07 17:34:01+00:00,64.0,9.64,74.0,11.28,13.05,47.59359,-54.27349
2021-01-07 17:44:01+00:00,67.0,10.62,68.0,12.4,13.05,47.59359,-54.27349
2021-01-07 17:54:01+00:00,68.0,11.23,69.0,12.73,13.05,47.59359,-54.27349
2021-01-07 18:04:01+00:00,66.0,11.02,73.0,13.32,13.05,47.59359,-54.27349
2021-01-07 18:14:01+00:00,61.0,10.96,60.0,12.37,12.81,47.59359,-54.27349
2021-01-07 18:24:01+00:00,59.0,10.66,56.0,11.85,12.81,47.59359,-54.27349
2021-01-07 18:34:01+00:00,58.0,12.3,59.0,13.83,12.81,47.59359,-54.27349
2021-01-07 18:44:01+00:00,59.0,11.89,55.0,13.35,12.81,47.59359,-54.27349
2021-01-07 18:54:01+00:00,58.0,11.27,52.0,12.34,12.81,47.59359,-54.27349
2021-01-07 19:04:01+00:00,63.0,10.36,62.0,11.81,12.81,47.59359,-54.27349
2021-01-07 19:14:01+00:00,63.0,11.74,68.0,13.5,12.65,47.59359,-54.27349
2021-01-07 19:24:01+00:00,63.0,11.16,66.0,13.18,12.65,47.59359,-54.27349
2021-01-07 19:34:01+00:00,67.0,11.73,64.0,13.8,12.65,47.59359,-54.27349
2021-01-07 19:44:01+00:00,74.0,7.35,76.0,9.72,12.65,47.59359,-54.27349
2021-01-07 19:54:01+00:00,81.0,6.17,87.0,10.27,12.65,47.59359,-54.27349
2021-01-07 20:04:01+00:00,98.0,7.53,99.0,10.72,12.65,47.59359,-54.27349
2021-01-07 20:14:01+00:00,115.0,5.72,125.0,10.51,12.49,47.59359,-54.27349
2021-01-07 20:24:01+00:00,125.0,9.17,129.0,10.66,12.49,47.59359,-54.27349
2021-01-07 20:34:01+00:00,133.0,7.51,128.0,9.43,12.49,47.59359,-54.27349
2021-01-07 20:44:01+00:00,143.0,10.48,144.0,11.59,12.49,47.59359,-54.27349
2021-01-07 20:54:01+00:00,137.0,13.79,135.0,15.81,12.49,47.59359,-54.27349
2021-01-07 21:04:01+00:00,141.0,13.13,144.0,15.09,12.49,47.59359,-54.27349
2021-01-07 21:14:01+00:00,150.0,14.09,152.0,16.66,12.41,47.59359,-54.27349
2021-01-07 21:24:01+00:00,150.0,13.94,150.0,15.58,12.41,47.59359,-54.27349
2021-01-07 21:34:01+00:00,149.0,13.33,151.0,14.93,12.41,47.59359,-54.27349
2021-01-07 21:44:01+00:00,157.0,12.54,155.0,14.17,12.41,47.59359,-54.27349
2021-01-07 21:54:01+00:00,159.0,11.57,153.0,13.3,12.41,47.59359,-54.27349
2021-01-07 22:04:01+00:00,163.0,12.17,164.0,14.67,12.41,47.59359,-54.27349
2021-01-07 22:14:01+00:00,166.0,11.2,162.0,12.99,12.33,47.59359,-54.27349
2021-01-07 22:24:01+00:00,169.0,11.16,174.0,12.97,12.33,47.59359,-54.27349
2021-01-07 22:34:01+00:00,171.0,11.25,168.0,12.72,12.33,47.59359,-54.27349
2021-01-07 22:44:01+00:00,173.0,12.69,181.0,14.21,12.33,47.59359,-54.27349
2021-01-07 22:54:01+00:00,170.0,13.56,161.0,15.54,12.33,47.59359,-54.27349
2021-01-07 23:04:01+00:00,172.0,12.19,178.0,14.56,12.33,47.59359,-54.27349
2021-01-07 23:14:01+00:00,175.0,11.99,179.0,13.54,12.33,47.59359,-54.27349
2021-01-07 23:24:01+00:00,177.0,11.96,184.0,14.65,12.33,47.59359,-54.27349
2021-01-07 23:34:01+00:00,173.0,12.94,163.0,15.52,12.33,47.59359,-54.27349
2021-01-07 23:44:01+00:00,160.0,11.77,156.0,13.65,12.33,47.59359,-54.27349
2021-01-07 23:54:01+00:00,173.0,10.46,176.0,12.13,12.33,47.59359,-54.27349
